TimeEDT,TemperatureF,Dew PointF,Humidity,Sea Level PressureIn,VisibilityMPH,Wind Direction,Wind SpeedMPH,Gust SpeedMPH,PrecipitationIn,Events,Conditions,WindDirDegrees,DateUTC
12:51 AM,59.0,50.0,72,29.98,10.0,North,4.6,-,N/A,,Mostly Cloudy,350,2013-07-25 04:51:00
1:51 AM,57.0,52.0,83,29.98,10.0,NW,5.8,-,N/A,,Overcast,320,2013-07-25 05:51:00
2:51 AM,57.0,52.0,83,29.98,10.0,NNW,3.5,-,N/A,,Overcast,340,2013-07-25 06:51:00
3:51 AM,57.9,51.1,78,30.00,10.0,Calm,Calm,-,N/A,,Overcast,0,2013-07-25 07:51:00
4:51 AM,57.0,50.0,77,30.01,10.0,Calm,Calm,-,N/A,,Overcast,0,2013-07-25 08:51:00
5:51 AM,55.9,50.0,80,30.03,10.0,NNW,4.6,-,N/A,,Overcast,340,2013-07-25 09:51:00
6:51 AM,55.9,48.9,77,30.05,10.0,North,3.5,-,N/A,,Overcast,10,2013-07-25 10:51:00
7:51 AM,57.9,50.0,75,30.06,10.0,North,8.1,-,N/A,,Overcast,360,2013-07-25 11:51:00
8:51 AM,60.1,48.9,67,30.09,10.0,NNE,9.2,-,N/A,,Mostly Cloudy,30,2013-07-25 12:51:00
9:51 AM,63.0,50.0,63,30.09,10.0,Variable,4.6,-,N/A,,Mostly Cloudy,0,2013-07-25 13:51:00
10:51 AM,64.9,51.1,61,30.11,10.0,Variable,5.8,-,N/A,,Clear,0,2013-07-25 14:51:00
11:51 AM,66.0,52.0,60,30.10,10.0,ESE,6.9,-,N/A,,Mostly Cloudy,120,2013-07-25 15:51:00
12:51 PM,66.0,53.1,63,30.11,10.0,East,5.8,-,N/A,,Scattered Clouds,80,2013-07-25 16:51:00
1:51 PM,66.9,53.1,61,30.10,10.0,NE,5.8,-,N/A,,Overcast,50,2013-07-25 17:51:00
2:51 PM,68.0,54.0,61,30.09,10.0,East,5.8,-,N/A,,Overcast,100,2013-07-25 18:51:00
3:51 PM,66.0,55.0,68,30.09,10.0,ESE,4.6,-,N/A,,Overcast,120,2013-07-25 19:51:00
4:51 PM,66.0,55.0,68,30.08,10.0,Calm,Calm,-,N/A,,Overcast,0,2013-07-25 20:51:00
5:51 PM,66.0,55.0,68,30.09,10.0,Calm,Calm,-,N/A,,Overcast,0,2013-07-25 21:51:00
6:51 PM,64.0,55.0,73,30.10,10.0,Calm,Calm,-,0.00,Rain,Light Rain,0,2013-07-25 22:51:00
7:51 PM,60.1,57.0,90,30.10,6.0,Calm,Calm,-,0.08,Rain,Light Rain,0,2013-07-25 23:51:00
8:51 PM,61.0,57.9,90,30.10,10.0,Calm,Calm,-,0.01,,Overcast,0,2013-07-26 00:51:00
9:51 PM,61.0,59.0,93,30.09,10.0,Calm,Calm,-,0.00,Rain,Light Rain,0,2013-07-26 01:51:00
10:51 PM,61.0,57.9,90,30.09,10.0,Calm,Calm,-,0.00,,Overcast,0,2013-07-26 02:51:00
11:51 PM,61.0,57.9,90,30.08,10.0,NNW,4.6,-,N/A,,Overcast,340,2013-07-26 03:51:00